QPF
0.08 0.10 0.11 0.12 0.13 0.14 0.14 0.14 0.13 0.15 0.18 0.18 0.15 0.12 0.11 0.10 0.08 0.03 0.01 0.00 0.00 0.00 0.00 0.00 0.00 0.00 0.00 0.01 0.02 0.04 0.06 0.09 0.10 0.11 0.12 0.13 0.14 0.14
0.10 0.14 0.16 0.16 0.16 0.16 0.16 0.14 0.10 0.12 0.15 0.11 0.09 0.07 0.06 0.04 0.02 0.01 0.00 0.00 0.00 0.00 0.00 0.00 0.00 0.00 0.00 0.00 0.00 0.00 0.01 0.01 0.02 0.02 0.03 0.03 0.04 0.06
0.16 0.22 0.24 0.22 0.24 0.21 0.16 0.11 0.07 0.06 0.08 0.05 0.02 0.02 0.01 0.01 0.01 0.00 0.00 0.00 0.00 0.00 0.00 0.00 0.00 0.00 0.00 0.00 0.00 0.00 0.00 0.00 0.01 0.01 0.01 0.01 0.00 0.01
0.23 0.30 0.36 0.36 0.29 0.22 0.16 0.12 0.07 0.04 0.03 0.02 0.01 0.00 0.00 0.00 0.00 0.00 0.00 0.00 0.00 0.00 0.00 0.00 0.00 0.00 0.00 0.00 0.00 0.00 0.00 0.00 0.00 0.00 0.00 0.00 0.00 0.00
0.34 0.34 0.34 0.32 0.27 0.20 0.13 0.08 0.05 0.02 0.01 0.00 0.00 0.00 0.00 0.00 0.00 0.00 0.00 0.00 0.00 0.00 0.00 0.00 0.00 0.00 0.00 0.00 0.00 0.00 0.00 0.00 0.00 0.00 0.00 0.00 0.00 0.00
0.36 0.31 0.24 0.20 0.19 0.15 0.09 0.05 0.02 0.01 0.00 0.00 0.00 0.00 0.00 0.00 0.00 0.00 0.00 0.00 0.00 0.00 0.00 0.00 0.00 0.00 0.00 0.00 0.00 0.00 0.00 0.00 0.00 0.00 0.00 0.00 0.00 0.00
0.23 0.18 0.13 0.09 0.08 0.06 0.04 0.02 0.01 0.00 0.00 0.00 0.00 0.00 0.00 0.00 0.00 0.00 0.00 0.00 0.00 0.00 0.00 0.00 0.00 0.00 0.00 0.00 0.00 0.00 0.00 0.00 0.00 0.00 0.00 0.00 0.00 0.00
0.09 0.07 0.05 0.03 0.02 0.01 0.00 0.00 0.00 0.00 0.00 0.00 0.00 0.00 0.00 0.00 0.00 0.00 0.00 0.00 0.00 0.00 0.00 0.00 0.00 0.00 0.00 0.00 0.00 0.00 0.00 0.00 0.00 0.00 0.00 0.00 0.00 0.00
0.02 0.02 0.01 0.01 0.00 0.00 0.00 0.00 0.00 0.00 0.00 0.00 0.00 0.00 0.00 0.00 0.00 0.00 0.00 0.00 0.00 0.00 0.00 0.00 0.00 0.00 0.00 0.00 0.00 0.00 0.00 0.00 0.00 0.00 0.00 0.00 0.00 0.00
0.00 0.00 0.00 0.00 0.00 0.00 0.00 0.00 0.00 0.00 0.00 0.00 0.00 0.00 0.00 0.00 0.00 0.00 0.00 0.00 0.00 0.00 0.00 0.00 0.00 0.00 0.00 0.00 0.00 0.00 0.00 0.00 0.00 0.00 0.00 0.00 0.00 0.00
0.00 0.00 0.00 0.00 0.00 0.00 0.00 0.00 0.00 0.00 0.00 0.00 0.00 0.00 0.00 0.00 0.00 0.00 0.00 0.00 0.00 0.00 0.00 0.00 0.00 0.00 0.00 0.00 0.00 0.00 0.00 0.00 0.00 0.00 0.00 0.00 0.00 0.01
0.00 0.00 0.00 0.00 0.00 0.00 0.00 0.00 0.00 0.00 0.00 0.00 0.00 0.00 0.00 0.00 0.00 0.00 0.00 0.00 0.00 0.00 0.00 0.00 0.00 0.00 0.00 0.00 0.00 0.00 0.00 0.00 0.00 0.00 0.00 0.01 0.01 0.03
0.00 0.00 0.00 0.00 0.00 0.00 0.00 0.00 0.00 0.00 0.00 0.00 0.00 0.00 0.00 0.00 0.00 0.00 0.00 0.00 0.00 0.00 0.00 0.00 0.00 0.00 0.00 0.00 0.00 0.00 0.00 0.00 0.00 0.00 0.00 0.01 0.02 0.07
0.00 0.00 0.00 0.00 0.00 0.00 0.00 0.00 0.00 0.00 0.00 0.00 0.00 0.00 0.00 0.00 0.00 0.00 0.00 0.00 0.00 0.00 0.00 0.00 0.00 0.00 0.00 0.00 0.00 0.00 0.00 0.00 0.00 0.00 0.00 0.01 0.03 0.09
0.00 0.00 0.00 0.00 0.00 0.00 0.00 0.00 0.00 0.00 0.00 0.00 0.00 0.00 0.00 0.00 0.00 0.00 0.00 0.00 0.00 0.00 0.00 0.00 0.00 0.00 0.00 0.00 0.00 0.00 0.00 0.00 0.00 0.00 0.00 0.01 0.03 0.07
0.00 0.00 0.00 0.00 0.00 0.00 0.00 0.00 0.00 0.00 0.00 0.00 0.00 0.00 0.00 0.00 0.00 0.00 0.00 0.00 0.00 0.00 0.00 0.00 0.00 0.00 0.00 0.00 0.00 0.00 0.00 0.00 0.00 0.00 0.01 0.01 0.03 0.05
0.00 0.00 0.00 0.00 0.00 0.00 0.00 0.00 0.00 0.00 0.00 0.00 0.00 0.00 0.00 0.00 0.00 0.00 0.00 0.00 0.00 0.00 0.00 0.00 0.00 0.00 0.00 0.00 0.00 0.00 0.00 0.00 0.00 0.00 0.00 0.00 0.01 0.04
0.00 0.00 0.00 0.00 0.00 0.00 0.00 0.00 0.00 0.00 0.00 0.00 0.00 0.00 0.00 0.00 0.00 0.00 0.00 0.00 0.00 0.00 0.00 0.00 0.00 0.00 0.00 0.00 0.00 0.00 0.00 0.00 0.00 0.00 0.00 0.00 0.00 0.02
0.00 0.00 0.00 0.00 0.00 0.00 0.00 0.00 0.00 0.00 0.00 0.00 0.00 0.00 0.00 0.00 0.00 0.00 0.00 0.00 0.00 0.00 0.00 0.00 0.00 0.00 0.00 0.00 0.00 0.00 0.00 0.00 0.00 0.00 0.00 0.00 0.00 0.00
0.00 0.00 0.00 0.00 0.00 0.00 0.00 0.00 0.00 0.00 0.00 0.00 0.00 0.00 0.00 0.00 0.00 0.00 0.00 0.00 0.00 0.00 0.00 0.00 0.00 0.00 0.00 0.00 0.00 0.00 0.00 0.00 0.00 0.00 0.00 0.00 0.00 0.00
0.00 0.00 0.00 0.00 0.00 0.00 0.00 0.00 0.00 0.00 0.00 0.00 0.00 0.00 0.00 0.00 0.00 0.00 0.00 0.00 0.00 0.00 0.00 0.00 0.00 0.00 0.00 0.00 0.00 0.00 0.00 0.00 0.00 0.00 0.00 0.00 0.00 0.00
0.00 0.00 0.00 0.00 0.00 0.00 0.00 0.00 0.00 0.00 0.00 0.00 0.00 0.00 0.00 0.00 0.00 0.00 0.00 0.00 0.00 0.00 0.00 0.00 0.00 0.00 0.00 0.00 0.00 0.00 0.00 0.00 0.00 0.00 0.00 0.00 0.00 0.00
0.00 0.00 0.00 0.00 0.00 0.00 0.00 0.00 0.00 0.00 0.00 0.00 0.00 0.00 0.00 0.00 0.00 0.00 0.00 0.00 0.00 0.00 0.00 0.00 0.00 0.00 0.00 0.00 0.00 0.00 0.00 0.00 0.00 0.00 0.00 0.00 0.00 0.00
MSLP
1005.67 1005.85 1006.12 1006.43 1006.77 1007.12 1007.45 1007.77 1008.07 1008.36 1008.62 1008.85 1009.03 1009.17 1009.24 1009.26 1009.24 1009.17 1009.10 1009.04 1009.01 1009.02 1009.07 1009.14 1009.23 1009.30 1009.34 1009.35 1009.32 1009.27 1009.22 1009.19 1009.20 1009.27 1009.39 1009.57 1009.79 1010.02
1005.29 1005.42 1005.63 1005.92 1006.25 1006.61 1006.99 1007.38 1007.78 1008.16 1008.53 1008.87 1009.15 1009.37 1009.51 1009.57 1009.57 1009.52 1009.45 1009.39 1009.36 1009.37 1009.42 1009.51 1009.61 1009.71 1009.78 1009.80 1009.78 1009.72 1009.64 1009.57 1009.52 1009.50 1009.54 1009.61 1009.72 1009.86
1005.20 1005.25 1005.40 1005.63 1005.93 1006.28 1006.68 1007.11 1007.57 1008.03 1008.49 1008.91 1009.28 1009.57 1009.76 1009.87 1009.90 1009.87 1009.81 1009.75 1009.72 1009.73 1009.80 1009.90 1010.03 1010.16 1010.26 1010.31 1010.30 1010.25 1010.15 1010.04 1009.93 1009.84 1009.78 1009.76 1009.76 1009.79
1005.39 1005.37 1005.45 1005.61 1005.86 1006.18 1006.56 1007.00 1007.49 1008.00 1008.51 1009.00 1009.42 1009.77 1010.02 1010.16 1010.22 1010.21 1010.16 1010.10 1010.08 1010.10 1010.17 1010.30 1010.44 1010.59 1010.72 1010.79 1010.80 1010.74 1010.63 1010.48 1010.32 1010.16 1010.01 1009.90 1009.80 1009.73
1005.82 1005.75 1005.77 1005.86 1006.05 1006.31 1006.66 1007.08 1007.56 1008.09 1008.62 1009.14 1009.60 1009.98 1010.26 1010.44 1010.52 1010.53 1010.49 1010.45 1010.43 1010.45 1010.53 1010.66 1010.81 1010.97 1011.10 1011.18 1011.19 1011.12 1010.99 1010.80 1010.59 1010.36 1010.15 1009.94 1009.76 1009.60
1006.43 1006.33 1006.29 1006.33 1006.45 1006.66 1006.96 1007.34 1007.79 1008.29 1008.81 1009.33 1009.80 1010.20 1010.50 1010.71 1010.81 1010.84 1010.82 1010.78 1010.77 1010.79 1010.86 1010.98 1011.12 1011.26 1011.38 1011.44 1011.43 1011.34 1011.17 1010.95 1010.69 1010.41 1010.12 1009.85 1009.60 1009.37
1007.11 1007.00 1006.94 1006.94 1007.02 1007.17 1007.41 1007.73 1008.13 1008.59 1009.08 1009.57 1010.03 1010.42 1010.74 1010.95 1011.08 1011.13 1011.12 1011.10 1011.09 1011.10 1011.16 1011.25 1011.36 1011.47 1011.55 1011.57 1011.52 1011.39 1011.19 1010.93 1010.62 1010.29 1009.96 1009.64 1009.33 1009.04
1007.77 1007.68 1007.63 1007.61 1007.65 1007.76 1007.95 1008.21 1008.55 1008.95 1009.39 1009.84 1010.27 1010.65 1010.96 1011.18 1011.33 1011.39 1011.41 1011.40 1011.39 1011.40 1011.44 1011.49 1011.56 1011.62 1011.65 1011.62 1011.52 1011.35 1011.10 1010.79 1010.45 1010.08 1009.71 1009.35 1009.00 1008.65
1008.33 1008.29 1008.27 1008.27 1008.30 1008.38 1008.52 1008.73 1009.01 1009.35 1009.73 1010.13 1010.52 1010.88 1011.18 1011.41 1011.56 1011.65 1011.69 1011.69 1011.69 1011.69 1011.70 1011.73 1011.75 1011.76 1011.73 1011.64 1011.49 1011.27 1010.98 1010.64 1010.27 1009.87 1009.47 1009.08 1008.69 1008.30
1008.75 1008.79 1008.82 1008.85 1008.90 1008.97 1009.09 1009.26 1009.49 1009.77 1010.09 1010.44 1010.79 1011.12 1011.40 1011.63 1011.80 1011.90 1011.96 1011.98 1011.99 1011.98 1011.98 1011.97 1011.96 1011.92 1011.84 1011.70 1011.51 1011.25 1010.93 1010.57 1010.17 1009.76 1009.35 1008.93 1008.50 1008.07
1009.04 1009.17 1009.27 1009.35 1009.43 1009.52 1009.63 1009.78 1009.96 1010.20 1010.47 1010.77 1011.08 1011.38 1011.65 1011.87 1012.04 1012.17 1012.24 1012.28 1012.29 1012.29 1012.28 1012.25 1012.21 1012.13 1012.01 1011.85 1011.62 1011.34 1011.01 1010.64 1010.24 1009.82 1009.39 1008.95 1008.50 1008.01
1009.24 1009.46 1009.64 1009.79 1009.91 1010.02 1010.14 1010.28 1010.44 1010.64 1010.88 1011.14 1011.41 1011.68 1011.93 1012.14 1012.31 1012.44 1012.53 1012.58 1012.60 1012.60 1012.59 1012.55 1012.49 1012.40 1012.27 1012.08 1011.84 1011.56 1011.23 1010.86 1010.47 1010.06 1009.63 1009.18 1008.69 1008.16
1009.38 1009.69 1009.95 1010.16 1010.34 1010.48 1010.62 1010.76 1010.91 1011.10 1011.30 1011.53 1011.78 1012.02 1012.24 1012.45 1012.61 1012.74 1012.83 1012.89 1012.91 1012.92 1012.91 1012.87 1012.81 1012.71 1012.57 1012.39 1012.16 1011.88 1011.57 1011.22 1010.85 1010.45 1010.03 1009.57 1009.07 1008.50
1009.51 1009.90 1010.22 1010.50 1010.72 1010.90 1011.06 1011.21 1011.37 1011.54 1011.74 1011.95 1012.17 1012.39 1012.59 1012.77 1012.92 1013.04 1013.13 1013.18 1013.21 1013.22 1013.21 1013.18 1013.12 1013.03 1012.90 1012.73 1012.51 1012.26 1011.97 1011.64 1011.29 1010.92 1010.51 1010.07 1009.56 1008.98
1009.63 1010.08 1010.46 1010.78 1011.04 1011.26 1011.44 1011.61 1011.78 1011.96 1012.15 1012.35 1012.56 1012.76 1012.95 1013.11 1013.24 1013.34 1013.41 1013.46 1013.48 1013.49 1013.48 1013.45 1013.40 1013.32 1013.20 1013.05 1012.86 1012.62 1012.36 1012.06 1011.74 1011.39 1011.01 1010.58 1010.09 1009.52
1009.72 1010.21 1010.63 1010.99 1011.28 1011.52 1011.73 1011.93 1012.12 1012.31 1012.51 1012.71 1012.91 1013.10 1013.27 1013.42 1013.53 1013.61 1013.67 1013.70 1013.71 1013.72 1013.70 1013.68 1013.64 1013.56 1013.46 1013.32 1013.15 1012.94 1012.69 1012.42 1012.13 1011.80 1011.45 1011.05 1010.59 1010.05
1009.74 1010.26 1010.70 1011.07 1011.39 1011.65 1011.89 1012.11 1012.33 1012.54 1012.76 1012.98 1013.19 1013.38 1013.54 1013.67 1013.77 1013.83 1013.87 1013.89 1013.90 1013.90 1013.89 1013.86 1013.82 1013.76 1013.67 1013.54 1013.38 1013.18 1012.95 1012.70 1012.42 1012.12 1011.79 1011.43 1011.01 1010.52
1009.63 1010.16 1010.61 1011.00 1011.33 1011.61 1011.88 1012.13 1012.38 1012.63 1012.88 1013.12 1013.35 1013.55 1013.72 1013.85 1013.94 1014.00 1014.03 1014.04 1014.05 1014.04 1014.03 1014.02 1013.98 1013.93 1013.84 1013.72 1013.56 1013.37 1013.15 1012.90 1012.63 1012.34 1012.04 1011.70 1011.32 1010.89
1009.36 1009.89 1010.35 1010.74 1011.08 1011.40 1011.69 1011.98 1012.27 1012.56 1012.85 1013.13 1013.38 1013.60 1013.79 1013.93 1014.02 1014.09 1014.12 1014.14 1014.15 1014.16 1014.16 1014.15 1014.13 1014.08 1014.00 1013.88 1013.73 1013.53 1013.30 1013.05 1012.78 1012.50 1012.21 1011.89 1011.55 1011.16
1008.92 1009.45 1009.91 1010.31 1010.67 1011.01 1011.34 1011.67 1012.00 1012.34 1012.68 1012.99 1013.29 1013.54 1013.74 1013.90 1014.02 1014.10 1014.16 1014.20 1014.23 1014.25 1014.27 1014.28 1014.27 1014.24 1014.17 1014.06 1013.90 1013.70 1013.46 1013.20 1012.92 1012.64 1012.34 1012.04 1011.71 1011.35
1008.34 1008.87 1009.33 1009.75 1010.13 1010.50 1010.86 1011.24 1011.62 1012.01 1012.38 1012.74 1013.07 1013.36 1013.60 1013.78 1013.93 1014.04 1014.12 1014.19 1014.25 1014.31 1014.36 1014.40 1014.41 1014.40 1014.34 1014.24 1014.08 1013.88 1013.64 1013.37 1013.08 1012.78 1012.47 1012.16 1011.84 1011.50
1007.67 1008.20 1008.67 1009.10 1009.51 1009.91 1010.32 1010.73 1011.16 1011.59 1012.01 1012.41 1012.77 1013.08 1013.35 1013.57 1013.74 1013.88 1014.00 1014.11 1014.21 1014.31 1014.40 1014.47 1014.53 1014.54 1014.51 1014.42 1014.27 1014.07 1013.82 1013.55 1013.25 1012.94 1012.62 1012.30 1011.98 1011.63
1006.98 1007.52 1008.00 1008.45 1008.88 1009.32 1009.76 1010.21 1010.68 1011.14 1011.59 1012.01 1012.39 1012.73 1013.02 1013.26 1013.46 1013.63 1013.79 1013.93 1014.08 1014.22 1014.36 1014.48 1014.57 1014.62 1014.61 1014.55 1014.42 1014.23 1014.00 1013.72 1013.42 1013.11 1012.79 1012.46 1012.13 1011.79
Thickness
5677 5677 5676 5674 5672 5671 5670 5668 5665 5661 5659 5662 5665 5668 5671 5672 5672 5672 5673 5675 5679 5684 5687 5690 5691 5692 5694 5696 5698 5701 5704 5706 5708 5709 5710 5711 5712 5713
5669 5669 5668 5667 5665 5664 5664 5663 5663 5662 5656 5655 5656 5658 5662 5663 5663 5664 5665 5668 5671 5675 5678 5679 5681 5682 5683 5685 5687 5689 5692 5695 5697 5699 5700 5702 5704 5705
5660 5661 5661 5660 5658 5657 5657 5656 5656 5657 5652 5646 5648 5650 5652 5653 5654 5655 5657 5660 5662 5664 5667 5668 5669 5670 5671 5673 5675 5678 5680 5683 5686 5688 5689 5691 5693 5695
5650 5652 5652 5652 5651 5650 5649 5648 5648 5649 5648 5642 5641 5642 5643 5645 5646 5647 5648 5650 5651 5653 5655 5657 5658 5659 5660 5661 5663 5666 5669 5671 5674 5676 5678 5680 5682 5684
5640 5641 5642 5643 5642 5641 5640 5640 5639 5639 5640 5638 5634 5634 5634 5636 5638 5638 5639 5639 5641 5643 5645 5646 5648 5649 5649 5650 5652 5655 5657 5659 5662 5664 5666 5669 5671 5674
5629 5630 5631 5632 5632 5631 5630 5630 5631 5630 5630 5630 5628 5626 5627 5627 5629 5629 5630 5631 5632 5634 5636 5637 5638 5638 5639 5640 5642 5644 5646 5648 5650 5653 5656 5659 5662 5665
5619 5620 5621 5622 5623 5623 5623 5623 5625 5624 5623 5622 5621 5620 5620 5620 5621 5622 5623 5624 5625 5625 5627 5628 5629 5630 5630 5630 5632 5633 5635 5637 5639 5642 5645 5648 5652 5655
5610 5610 5611 5613 5615 5615 5615 5617 5619 5618 5617 5616 5615 5614 5612 5613 5614 5615 5617 5618 5618 5617 5619 5619 5619 5619 5619 5620 5621 5622 5624 5625 5627 5630 5633 5636 5640 5644
5603 5603 5604 5604 5606 5606 5606 5608 5609 5611 5613 5613 5611 5609 5608 5609 5609 5611 5610 5610 5608 5607 5609 5610 5610 5609 5608 5608 5610 5610 5611 5612 5614 5616 5619 5622 5627 5633
5595 5596 5596 5595 5597 5599 5599 5599 5599 5601 5604 5606 5606 5604 5604 5603 5604 5605 5603 5601 5600 5598 5599 5600 5599 5598 5597 5597 5596 5596 5596 5596 5598 5600 5602 5606 5612 5619
5586 5587 5589 5589 5591 5593 5594 5593 5593 5593 5595 5597 5598 5597 5597 5598 5599 5599 5597 5597 5594 5592 5590 5590 5588 5587 5587 5585 5584 5582 5582 5581 5581 5582 5584 5587 5593 5601
5578 5579 5580 5582 5584 5587 5589 5590 5587 5586 5589 5590 5590 5590 5591 5591 5592 5592 5592 5590 5587 5585 5581 5580 5579 5578 5578 5575 5573 5570 5569 5568 5567 5566 5567 5568 5571 5578
5573 5572 5573 5575 5578 5580 5583 5585 5583 5583 5584 5585 5584 5583 5583 5583 5583 5583 5582 5582 5580 5576 5572 5571 5571 5569 5567 5565 5562 5559 5556 5554 5554 5553 5552 5552 5553 5556
5569 5567 5567 5569 5572 5574 5576 5576 5577 5579 5580 5579 5578 5577 5576 5576 5575 5575 5574 5572 5570 5567 5565 5565 5563 5560 5558 5555 5550 5546 5544 5541 5540 5539 5539 5539 5539 5539
5565 5563 5562 5563 5566 5568 5569 5571 5573 5574 5574 5574 5572 5570 5570 5570 5571 5570 5569 5567 5565 5563 5560 5557 5556 5552 5548 5542 5538 5533 5530 5528 5526 5526 5526 5526 5525 5526
5559 5557 5557 5558 5560 5561 5563 5565 5567 5568 5569 5568 5567 5566 5567 5567 5566 5565 5563 5562 5561 5558 5555 5552 5549 5546 5541 5534 5529 5523 5518 5515 5514 5513 5514 5515 5514 5514
5555 5553 5553 5553 5555 5557 5558 5559 5561 5562 5563 5563 5563 5564 5563 5563 5560 5558 5556 5556 5554 5552 5550 5546 5542 5538 5533 5528 5524 5517 5512 5509 5505 5504 5506 5507 5506 5505
5556 5554 5552 5553 5555 5556 5557 5557 5557 5558 5559 5560 5560 5560 5559 5557 5555 5552 5551 5551 5549 5546 5543 5540 5538 5537 5532 5524 5514 5511 5508 5503 5501 5499 5499 5500 5500 5499
5555 5554 5553 5552 5553 5554 5555 5556 5556 5555 5555 5556 5556 5554 5553 5552 5550 5549 5547 5545 5543 5541 5537 5534 5532 5531 5529 5524 5514 5504 5500 5498 5497 5496 5494 5493 5493 5492
5557 5555 5553 5552 5552 5552 5552 5553 5553 5551 5551 5552 5551 5550 5549 5548 5547 5545 5543 5541 5539 5536 5534 5531 5526 5521 5519 5515 5510 5504 5497 5494 5492 5492 5490 5489 5489 5487
5556 5555 5554 5553 5553 5552 5552 5552 5551 5550 5549 5548 5547 5546 5544 5543 5542 5540 5538 5534 5533 5531 5530 5526 5519 5513 5509 5507 5507 5503 5497 5490 5486 5484 5485 5486 5486 5487
5558 5557 5555 5554 5553 5553 5552 5550 5549 5548 5546 5545 5544 5542 5540 5539 5538 5535 5533 5531 5529 5527 5523 5520 5515 5513 5510 5508 5505 5500 5495 5490 5486 5482 5479 5478 5477 5479
5561 5559 5557 5555 5554 5553 5552 5550 5548 5547 5545 5543 5541 5539 5536 5534 5532 5530 5527 5525 5523 5521 5518 5516 5513 5510 5506 5502 5499 5496 5492 5488 5484 5482 5480 5475 5472 5470